Wind_Speed
11 11 11 11 12 11 11 10 11 11 11 10 9 8 8 7 7 7 6 6 6 7 8 10 11 12 13 14 15 16 17 17 15 13 11 11 11 11 12 12 11 11 11 12 12 13 14 14 15 15 16 16 17 17 16 15 14 14 14 14 14 14 14 14 15 16 16 16 16
10 10 10 10 10 10 9 9 9 8 8 8 9 9 9 9 8 8 7 6 7 8 9 11 12 13 13 14 15 16 16 14 12 10 8 8 9 9 9 9 8 7 8 9 9 10 11 11 12 12 13 15 16 17 17 17 16 15 14 14 14 14 14 14 15 16 17 17 18
9 9 9 8 8 7 7 6 5 5 5 6 7 8 9 9 9 9 8 7 7 8 10 11 12 12 12 12 13 14 13 11 9 8 7 7 7 7 7 6 6 6 7 8 9 9 10 10 11 11 12 14 15 16 17 18 18 18 17 17 18 18 17 16 16 17 17 18 19
9 8 7 7 7 6 6 6 5 5 6 7 8 8 9 9 9 9 8 8 7 8 9 11 11 12 11 11 11 11 11 10 8 7 6 6 6 6 6 5 6 7 8 8 9 9 10 10 10 11 12 14 15 16 17 19 20 21 21 22 22 21 19 18 17 17 17 18 19
9 8 8 8 8 8 8 8 9 9 9 9 9 9 9 9 9 10 10 10 9 9 10 12 12 12 12 11 10 9 9 9 8 7 6 6 6 5 5 6 7 8 8 8 8 8 9 9 9 10 12 12 13 14 15 17 18 19 20 20 20 19 19 19 19 18 18 18 18
10 10 9 9 9 9 9 9 10 10 10 10 10 10 10 10 11 11 11 11 10 11 12 13 14 13 12 10 8 9 9 9 8 7 7 6 6 6 6 6 7 7 7 7 7 7 7 8 8 9 10 11 11 11 11 12 13 14 15 15 15 15 16 17 18 17 16 15 15
11 10 10 9 9 9 9 9 9 10 10 10 10 10 11 11 11 11 12 12 12 13 14 15 15 13 10 8 8 9 9 9 9 8 7 6 6 6 6 7 8 8 8 7 6 6 6 7 7 8 9 9 9 9 9 9 10 11 11 11 12 12 12 13 14 13 13 13 13
11 10 9 8 8 8 8 8 8 9 9 9 10 10 10 11 11 12 12 13 14 15 15 14 13 10 8 8 8 8 8 8 8 8 7 6 6 6 7 7 8 8 8 6 6 5 5 5 6 6 7 7 7 7 7 7 8 9 9 9 10 10 10 10 10 10 10 11 13
10 9 8 8 7 7 7 7 7 8 8 8 9 9 10 11 11 12 12 12 13 13 13 11 9 8 8 8 7 6 6 7 7 8 7 6 6 6 6 6 7 7 7 6 6 6 5 4 4 4 5 5 5 5 6 6 6 7 7 8 7 7 8 9 9 9 9 10 12
9 8 7 6 6 6 6 6 7 7 7 8 9 10 11 12 12 12 11 10 11 11 10 9 8 8 8 7 6 6 6 6 7 7 7 6 6 6 6 6 6 5 4 5 6 6 6 5 4 3 3 3 3 4 5 5 5 5 6 6 5 6 7 8 8 8 9 10 11
9 8 7 6 6 6 6 6 6 6 7 8 9 10 11 12 12 11 10 9 9 9 9 8 8 8 8 7 7 6 6 5 5 5 5 5 5 6 6 7 6 4 2 3 3 5 5 5 4 3 2 2 2 3 4 4 5 5 5 4 4 4 5 6 7 7 8 9 9
9 8 7 6 6 6 6 6 5 6 6 7 8 9 10 10 9 9 8 8 8 8 8 8 8 7 7 7 7 6 5 4 3 3 4 5 5 6 7 6 4 2 3 3 2 2 4 5 4 3 3 2 2 2 3 3 4 4 3 3 3 4 5 6 6 6 6 7 8
10 9 8 7 6 6 6 6 6 6 6 7 8 8 8 8 7 7 6 6 7 7 7 7 7 7 7 7 7 6 5 4 3 3 3 4 5 5 6 5 2 3 3 3 1 2 4 4 4 3 3 2 2 2 2 3 3 3 2 2 3 4 5 5 5 5 5 6 7
10 9 8 7 6 6 6 6 6 6 7 8 9 9 8 7 7 6 5 5 5 5 5 5 6 6 6 6 6 5 3 3 2 2 2 3 3 4 4 3 0 3 3 2 0 2 3 3 4 3 3 2 2 2 3 3 3 3 3 3 3 4 5 5 5 5 5 6 7
10 9 7 7 6 5 5 5 6 7 8 9 9 9 9 8 7 6 5 5 5 5 5 5 5 5 5 5 4 4 2 1 1 1 1 2 3 3 3 3 2 3 4 2 1 1 2 3 4 4 3 4 4 4 4 4 4 4 4 4 4 5 5 6 6 6 6 7 8
9 8 7 6 5 4 4 5 7 8 9 9 9 9 9 8 7 6 5 5 4 4 4 4 4 4 4 3 3 2 1 0 1 1 2 3 3 4 4 4 4 5 5 4 3 2 2 3 3 3 3 4 5 5 5 5 5 5 6 6 6 6 7 7 7 8 8 8 9
8 7 6 5 5 5 5 6 7 8 8 8 8 8 8 8 7 6 6 4 3 3 2 3 3 2 2 2 2 1 1 0 0 1 3 3 4 4 5 5 5 5 5 5 5 4 4 4 4 3 4 5 5 6 6 6 6 7 7 8 8 8 9 9 9 9 10 10 11
7 7 7 6 6 6 7 7 7 8 7 7 6 7 7 7 7 7 7 6 5 4 4 3 3 3 2 2 2 3 3 2 2 3 4 5 5 5 5 5 5 5 5 6 7 7 6 6 5 4 5 5 6 7 7 7 7 7 8 9 9 9 9 9 10 10 10 10 10
7 7 7 7 7 7 8 8 8 8 7 6 6 6 6 7 7 7 7 7 7 7 6 5 4 4 4 3 4 5 5 4 4 5 6 6 7 7 7 7 7 7 7 8 8 8 8 7 7 6 6 6 7 7 7 7 7 7 7 8 8 8 8 8 9 9 9 9 9
8 8 8 7 7 8 8 8 8 7 7 7 7 7 6 7 7 8 8 8 8 9 8 8 6 5 4 5 5 6 6 5 5 6 7 8 8 8 7 8 8 9 9 9 8 7 7 7 7 7 7 7 8 8 8 7 7 7 7 7 7 7 7 8 8 8 7 8 8
9 9 8 8 8 8 7 7 6 6 6 6 6 6 6 6 7 8 8 8 8 9 9 9 8 6 6 6 6 6 5 5 6 7 8 9 9 9 8 8 9 9 8 7 6 5 6 7 7 7 8 8 8 8 8 8 7 8 8 8 7 8 8 8 7 7 7 7 8
9 9 9 9 8 8 7 6 5 5 5 5 6 6 6 6 6 7 7 7 7 7 7 7 8 8 8 7 6 6 6 6 7 8 9 10 10 10 10 9 9 9 8 7 5 5 6 7 8 8 9 9 8 8 8 7 8 8 8 8 8 8 8 7 7 7 7 8 8
10 10 10 10 9 8 7 7 6 6 5 5 6 6 6 6 6 6 7 7 7 7 7 7 8 9 9 9 9 8 9 9 10 11 11 11 11 11 11 11 10 9 8 6 5 6 8 8 8 9 9 8 8 8 8 7 8 9 9 9 8 8 8 8 8 8 8 9 9
10 11 11 10 9 9 8 7 7 6 6 6 6 6 6 6 7 7 8 8 8 8 8 8 8 9 10 10 11 12 12 12 13 13 13 12 12 12 11 11 9 7 6 5 6 7 8 9 9 9 8 8 8 8 8 8 9 9 10 10 10 10 9 9 9 9 9 10 10
11 11 11 10 10 9 8 8 7 7 7 7 6 6 7 8 9 9 9 9 8 8 8 9 9 10 10 11 11 11 11 11 11 12 12 11 11 11 11 9 7 7 6 7 7 8 8 9 9 9 9 9 9 9 9 9 10 10 11 11 11 11 11 11 10 10 10 9 9
12 12 11 11 10 9 9 8 8 7 8 8 7 7 8 9 9 10 10 9 9 10 10 10 11 11 11 10 10 9 8 8 8 9 9 10 10 10 9 7 7 8 8 8 9 8 8 8 8 9 10 10 10 10 11 11 11 11 11 11 12 12 13 13 12 10 9 9 9
12 12 11 11 10 9 9 8 8 8 8 9 8 8 8 9 9 9 9 10 10 10 10 10 10 10 9 8 7 7 7 7 7 8 8 8 8 8 7 7 7 8 9 9 9 9 8 7 8 9 10 11 11 12 13 13 13 12 12 12 13 13 13 13 12 11 11 11 11
13 12 11 11 10 9 9 8 8 9 9 9 9 9 9 9 8 8 8 8 8 8 7 7 7 7 7 6 7 7 8 8 8 7 7 6 6 6 6 6 8 8 9 9 9 9 9 8 8 9 11 12 12 13 13 14 13 13 13 13 13 13 13 13 12 12 12 13 14
13 12 12 11 10 10 9 9 9 10 10 10 9 9 8 7 7 7 6 6 5 5 5 5 6 6 6 7 7 7 7 7 7 6 6 5 4 4 5 6 7 8 8 8 9 9 9 9 9 10 11 13 13 13 13 13 13 13 13 13 14 13 13 13 13 13 13 14 14
14 13 12 12 11 11 11 11 11 11 10 10 9 8 7 6 6 6 6 5 4 4 4 5 5 5 5 6 5 5 5 5 4 4 4 3 4 4 5 6 7 7 7 7 9 10 10 10 10 10 12 13 13 13 13 13 13 14 14 14 13 13 13 12 13 13 13 13 13
14 13 13 13 12 12 12 11 11 11 10 10 9 8 7 7 7 7 6 5 5 5 5 5 5 5 5 5 4 4 4 3 4 4 4 4 4 5 5 5 5 6 7 8 9 10 10 10 10 10 11 13 13 13 13 13 13 14 14 14 13 13 12 11 11 11 11 11 11
14 14 14 13 13 13 12 12 11 11 11 10 9 9 9 8 8 6 5 5 6 6 6 6 5 5 4 4 4 3 3 3 4 4 5 5 5 5 4 4 5 7 8 8 9 10 10 10 10 11 12 13 14 14 13 14 14 14 14 14 14 13 11 10 10 9 9 9 9
15 15 14 14 14 13 13 12 12 12 12 11 10 10 9 9 8 7 6 7 7 7 6 5 5 5 5 4 4 3 4 4 4 5 5 5 6 5 5 6 7 8 8 9 10 10 11 11 11 12 13 14 14 14 14 14 15 15 15 15 14 13 12 11 10 9 8 7 7
16 15 15 15 14 14 13 13 13 13 12 12 11 11 10 9 8 7 7 8 7 7 6 5 5 5 5 5 4 4 4 4 5 5 5 6 6 7 7 7 8 8 9 9 10 10 11 11 11 12 13 13 14 14 15 15 16 16 16 16 16 15 14 14 13 11 10 8 7
16 16 16 15 15 15 14 14 14 14 13 12 12 11 10 9 9 8 8 8 7 7 6 6 7 7 7 6 6 6 5 5 5 5 6 6 7 8 8 8 8 8 9 9 10 10 10 10 10 11 12 13 13 14 14 15 15 16 16 17 16 16 15 15 14 13 12 10 9
17 17 16 16 16 16 15 15 15 14 14 13 13 12 11 10 9 9 9 9 8 8 7 7 8 8 8 7 7 7 6 6 6 6 7 7 8 9 9 9 9 9 9 9 9 10 10 10 10 10 11 12 13 13 13 14 14 15 16 16 16 15 15 15 14 14 13 12 11
18 17 17 17 17 17 16 16 15 15 14 14 13 13 12 11 10 10 10 9 9 9 9 9 9 9 8 8 7 7 7 7 7 7 8 8 9 10 10 10 10 9 9 9 9 9 9 10 10 11 12 12 12 13 13 13 13 14 14 15 14 14 14 13 13 12 12 12 12
18 17 17 17 17 17 17 16 16 16 15 15 14 13 13 12 12 11 11 10 10 10 10 10 10 9 9 8 8 7 8 8 8 8 9 9 10 11 11 11 10 9 8 8 9 9 9 10 10 11 12 12 12 12 12 12 13 13 13 13 13 12 12 12 12 12 12 12 12
18 17 17 17 17 17 17 17 17 16 16 15 15 14 14 13 12 12 11 11 11 11 11 11 11 10 9 8 8 8 8 9 9 9 9 10 10 11 11 11 10 9 8 8 8 9 10 10 10 11 11 11 11 11 11 11 11 11 11 11 11 11 10 10 11 11 12 12 12
17 17 17 17 17 17 17 17 17 16 16 16 16 15 14 14 13 12 12 11 11 11 12 12 11 11 10 9 9 9 9 10 10 9 9 10 10 10 10 10 10 9 8 8 8 9 10 10 10 10 10 10 10 10 10 10 10 10 9 9 9 9 9 9 8 9 11 12 12
17 17 17 17 17 17 17 17 16 16 16 16 16 16 15 14 14 13 12 11 11 11 12 12 12 11 10 10 10 10 10 10 10 10 10 10 10 9 9 9 9 9 8 8 9 9 10 10 10 9 9 9 9 9 9 9 9 9 9 9 9 9 9 8 7 8 9 12 13
Wind_Direction
199 201 202 204 206 207 209 213 217 219 221 224 225 226 228 230 231 232 236 239 241 243 244 246 248 253 259 266 271 275 278 282 285 290 294 299 302 302 301 298 297 296 296 295 292 286 280 273 266 262 259 255 252 250 250 251 251 246 239 234 231 229 229 230 230 232 235 238 238
198 202 205 208 210 213 215 220 227 232 235 237 237 236 235 235 234 235 236 238 243 246 249 252 256 261 266 272 276 279 283 287 291 296 302 307 309 308 306 304 304 306 308 308 306 303 297 289 280 273 268 265 260 256 253 251 249 247 243 239 237 237 237 239 241 244 246 244 239
195 200 205 208 210 211 211 215 223 231 235 236 236 237 237 238 239 239 237 235 244 252 255 257 260 263 268 275 279 283 288 292 296 302 308 312 313 312 309 306 305 304 304 304 302 299 295 289 281 273 267 264 262 259 256 253 251 248 245 244 244 245 244 244 244 243 240 234 227
188 193 197 200 198 194 190 188 191 199 210 221 230 237 241 243 243 240 234 231 238 249 254 256 259 263 266 271 277 284 290 294 298 304 310 314 315 313 310 305 298 292 290 292 292 293 292 288 281 274 267 261 256 253 251 250 248 246 243 243 243 243 242 240 235 228 220 213 209
182 187 191 193 192 193 195 197 200 206 214 224 234 242 248 250 248 244 238 232 234 242 249 252 255 260 265 270 276 282 286 290 296 302 307 309 313 314 308 294 289 285 286 289 293 296 295 291 285 277 269 262 254 248 244 243 241 239 236 235 234 234 233 230 223 215 208 204 202
182 189 195 199 202 205 209 213 218 222 229 237 244 251 255 255 253 249 244 237 236 241 247 251 256 260 266 273 278 280 280 282 288 292 298 304 307 306 302 297 289 284 284 289 295 297 296 292 286 278 270 262 254 248 243 239 235 232 230 226 224 221 218 214 211 208 206 207 209
188 194 199 206 212 218 223 228 234 239 243 249 253 256 256 255 253 251 247 242 241 243 249 255 260 263 266 268 269 269 270 272 278 283 290 299 301 301 299 293 283 279 280 287 295 299 298 295 288 278 270 264 255 248 241 236 234 233 229 223 220 216 211 208 208 210 214 219 222
194 200 206 213 220 227 234 240 245 249 253 256 256 255 253 252 251 250 249 247 245 248 254 260 264 265 262 258 254 255 258 263 269 276 284 290 294 294 291 287 282 279 281 290 299 304 304 299 292 281 273 269 262 252 242 234 229 228 225 220 219 220 219 216 218 223 228 230 227
198 205 213 219 225 232 239 246 252 255 257 257 254 251 249 249 249 250 250 251 253 258 263 265 264 262 259 254 246 244 251 260 266 272 278 281 284 285 285 285 286 288 294 302 305 304 303 302 296 285 276 273 269 263 254 243 230 223 221 220 221 223 226 228 227 229 231 231 227
199 206 212 217 223 231 240 249 254 256 255 252 251 250 251 251 252 252 252 255 262 265 266 262 258 256 254 248 240 240 251 263 270 275 278 280 283 285 285 284 285 293 313 325 315 306 301 299 304 300 285 275 270 268 266 259 245 229 221 221 227 233 235 232 228 225 223 223 222
198 202 205 210 219 231 241 247 251 253 253 250 250 253 255 258 259 259 258 259 261 261 259 256 252 249 245 241 238 242 251 266 277 286 291 295 296 295 294 293 292 302 356 10 343 318 305 297 303 309 306 290 275 267 264 263 253 234 216 208 216 229 232 228 222 216 213 213 214
194 200 204 210 221 233 241 242 239 241 244 245 248 253 258 260 262 263 263 260 255 253 254 254 251 245 241 239 241 242 244 250 268 290 304 309 309 305 303 304 311 351 45 34 10 312 297 296 299 306 309 303 291 277 265 261 252 233 209 190 194 204 211 213 211 208 208 209 208
196 203 210 217 227 237 242 238 225 222 229 235 238 243 250 256 259 262 261 257 250 250 253 255 253 250 246 244 245 245 244 246 261 284 302 307 308 307 306 311 348 67 72 48 354 278 276 287 294 301 305 305 303 287 272 263 256 244 224 198 187 189 193 198 201 204 206 207 205
202 210 219 229 236 243 243 235 217 212 219 229 232 235 241 249 254 256 257 256 254 255 258 261 262 261 260 258 256 252 252 265 291 306 304 293 292 293 296 300 129 123 115 88 40 267 268 277 282 284 281 275 269 263 260 257 255 254 248 235 212 199 196 196 198 201 203 201 200
207 218 228 238 243 246 241 227 212 210 217 228 235 237 238 243 248 252 255 258 262 266 271 281 284 284 281 278 270 260 255 282 325 320 279 256 252 255 264 265 223 183 165 143 148 215 254 267 271 268 258 247 245 247 248 246 242 237 233 229 219 210 203 197 194 194 195 194 191
212 222 231 237 239 237 228 216 212 214 220 230 240 243 241 238 239 241 244 251 262 271 280 290 292 295 298 299 290 273 256 291 334 262 222 223 232 240 248 254 240 213 195 186 186 190 210 241 258 255 237 228 227 228 227 224 216 209 204 202 201 196 191 186 183 182 184 185 183
212 219 224 226 224 218 212 212 216 220 226 233 243 246 243 236 233 229 224 221 225 236 248 251 255 263 276 290 287 260 219 153 198 202 202 211 226 239 246 251 249 231 213 209 215 218 223 234 244 236 216 208 209 209 205 202 194 187 183 183 182 180 178 176 175 176 177 179 180
208 211 215 217 214 209 207 212 218 224 227 230 235 239 239 233 230 224 217 210 209 213 217 219 218 215 211 213 222 213 201 198 219 218 215 222 234 244 251 256 263 259 246 235 236 238 241 244 244 234 218 208 205 202 197 193 187 181 176 173 172 173 173 173 174 176 178 181 183
202 206 212 214 212 210 212 216 220 224 224 223 224 229 233 230 227 223 219 216 216 216 216 216 212 210 210 217 222 218 215 222 236 240 239 241 248 255 264 272 279 280 276 267 258 253 250 249 245 237 225 213 207 202 198 194 191 187 183 178 177 179 182 182 184 186 188 189 189
198 203 208 210 210 213 217 221 223 223 223 225 228 232 235 233 230 227 225 226 227 226 223 222 221 221 223 228 231 228 228 235 245 250 252 254 257 264 275 284 288 288 287 285 278 265 252 243 237 229 221 215 210 206 204 203 203 203 202 200 198 199 200 200 199 198 196 194 189
198 202 205 207 210 215 219 223 221 218 219 224 228 233 236 235 233 232 231 233 234 232 230 229 229 230 231 230 230 230 231 238 244 249 254 258 261 267 277 287 292 292 291 290 280 261 244 233 225 219 216 217 215 214 215 215 213 210 208 207 206 206 205 202 197 193 189 186 182
198 202 205 207 211 216 219 219 212 205 205 212 218 223 227 230 231 232 232 233 232 230 228 228 230 232 231 230 228 230 236 244 247 251 256 262 267 273 281 287 289 289 288 283 261 237 227 224 220 219 218 219 217 217 216 212 206 200 196 192 192 191 189 183 177 174 173 173 171
198 202 205 208 211 215 217 215 206 198 197 205 210 213 216 221 225 227 227 227 225 223 221 223 228 233 236 239 243 248 255 261 263 264 266 268 273 280 286 290 289 288 284 272 239 220 216 217 217 218 219 216 213 210 205 200 193 186 180 176 173 171 168 163 159 157 157 157 157
200 203 207 210 212 214 216 215 207 198 195 201 206 208 210 213 217 221 222 223 223 223 224 228 235 241 247 252 256 261 266 269 271 273 273 273 275 281 286 290 288 281 270 248 222 212 212 214 214 215 215 212 205 199 193 188 182 176 170 164 160 156 152 148 145 143 145 148 152
203 206 209 211 213 214 215 213 206 199 198 203 208 212 215 217 219 223 227 230 233 236 239 245 252 257 260 262 263 264 266 268 271 273 275 276 277 281 285 287 278 263 245 228 212 205 207 212 213 212 208 203 194 187 182 178 173 168 163 159 154 148 142 137 136 139 144 149 155
205 207 210 212 213 213 212 209 205 202 203 207 212 217 220 223 226 230 236 242 248 253 257 261 264 265 265 263 262 261 263 266 269 271 273 274 277 281 283 275 257 244 234 221 207 199 196 200 204 203 198 190 182 175 169 164 162 160 157 154 150 143 137 134 136 140 145 147 146
206 208 210 213 213 211 209 207 204 202 203 208 214 220 223 227 232 238 244 250 255 260 263 264 263 261 261 260 260 263 268 272 273 272 271 271 275 277 272 253 236 231 229 221 208 198 192 193 193 190 185 178 173 168 163 158 156 155 153 151 147 142 138 137 139 141 141 138 134
207 209 210 211 209 207 204 202 200 200 203 207 214 220 228 234 241 246 249 251 254 257 259 259 259 259 262 267 273 277 279 278 276 274 274 274 272 266 251 231 223 226 229 226 211 201 196 194 189 182 175 171 168 166 163 158 156 154 152 150 147 144 142 141 142 142 140 138 135
207 208 208 206 203 200 198 196 197 200 203 207 213 221 228 234 238 239 238 237 241 246 249 252 258 263 267 272 275 275 274 271 268 268 268 267 257 243 230 222 222 228 231 223 205 195 192 189 184 177 172 170 168 166 163 160 156 154 152 150 148 146 145 144 145 145 145 145 145
207 206 205 202 200 197 195 197 199 201 204 208 212 216 219 221 220 217 214 215 226 235 239 240 244 249 253 257 257 256 253 252 249 246 241 233 223 217 220 225 227 224 215 199 189 186 185 184 179 175 172 170 168 165 162 160 158 155 153 151 149 148 148 149 149 150 152 154 155
206 204 203 201 199 197 197 198 200 203 206 207 206 207 208 209 208 207 208 215 227 231 230 227 226 229 234 237 235 233 233 235 229 222 217 211 208 209 216 220 212 196 181 176 177 178 179 179 175 171 168 169 167 164 162 161 159 157 154 151 149 149 150 152 154 156 158 160 161
203 202 201 199 198 197 198 199 201 203 203 201 200 202 204 205 206 209 217 227 231 229 225 222 221 223 225 226 224 224 225 225 220 212 206 201 199 200 198 188 171 161 160 165 170 172 172 171 167 165 166 168 166 164 162 160 159 156 153 150 147 146 147 150 153 157 159 161 160
201 200 200 198 197 196 197 198 200 201 200 198 198 201 204 205 207 214 224 230 229 226 223 220 219 220 220 218 216 217 219 219 213 204 196 191 185 179 170 160 153 152 156 162 165 165 163 162 162 166 169 170 168 165 163 161 159 157 153 150 147 146 146 149 151 152 152 152 151
199 199 199 197 195 195 195 196 197 199 199 197 199 202 205 205 208 217 225 227 224 220 216 213 212 209 206 203 199 200 203 204 199 191 184 178 172 165 160 155 152 153 157 162 162 160 159 160 165 169 172 172 171 169 167 165 162 160 157 154 152 150 150 151 150 148 146 144 144
198 198 197 196 194 193 194 195 195 197 198 198 200 203 206 205 209 216 222 222 218 212 209 206 202 198 193 190 186 184 182 181 178 176 175 172 168 164 160 157 156 157 161 163 161 159 158 162 167 170 173 174 174 173 171 169 166 163 161 159 157 156 155 154 151 148 144 142 143
198 198 197 195 193 193 194 195 195 195 197 198 200 203 205 203 205 211 215 214 211 208 206 204 200 195 191 189 188 187 181 173 167 167 171 172 168 164 160 158 157 160 162 162 160 158 158 160 162 165 169 172 174 174 174 171 168 166 164 163 162 161 160 159 157 153 149 144 143
199 199 198 195 193 193 194 195 196 196 196 197 200 202 203 201 202 205 207 208 206 205 206 206 203 199 197 196 196 196 193 183 173 169 171 173 170 165 161 158 158 159 160 159 157 155 154 154 154 159 164 168 170 171 171 170 168 167 167 167 168 168 169 169 169 165 159 152 146
200 200 199 195 193 194 195 196 197 197 197 197 198 200 202 202 203 202 203 203 202 202 204 207 207 207 206 205 204 203 199 192 182 176 173 172 171 169 165 162 162 161 160 157 154 153 151 151 153 158 162 165 165 166 166 165 165 167 169 171 173 175 177 180 182 180 174 165 154
201 201 199 196 195 195 196 197 198 199 199 197 197 198 200 201 202 203 203 202 201 201 204 207 210 212 213 212 210 206 201 194 187 180 175 172 173 175 175 173 173 171 166 159 157 155 154 152 153 157 161 162 161 161 161 161 162 165 169 172 174 176 179 183 186 186 183 176 166
201 201 199 197 196 197 198 199 200 200 200 198 197 197 199 201 203 204 204 202 200 202 204 207 210 213 215 214 211 207 201 194 188 183 177 173 175 180 185 186 186 182 176 168 164 162 159 156 154 156 157 157 156 156 157 158 159 160 163 166 166 166 168 172 176 179 180 177 171
202 200 199 197 198 199 199 200 200 201 201 199 199 199 200 203 205 205 203 200 199 200 202 205 209 211 212 212 211 207 202 197 192 186 180 175 176 181 188 193 194 190 183 176 172 168 165 161 157 155 154 152 150 151 154 157 156 154 154 154 154 153 151 152 153 158 164 169 170
Height
809 810 810 811 811 812 813 813 814 815 815 816 816 816 817 817 817 818 818 819 819 819 819 818 818 818 818 818 817 817 817 817 817 816 816 816 816 816 816 815 815 815 815 815 815 815 814 814 814 814 814 814 814 814 814 814 814 814 814 814 814 815 815 815 816 816 816 817 818
809 809 810 811 811 812 812 813 814 814 815 815 815 816 816 816 816 817 818 818 818 818 818 817 817 817 817 817 816 816 816 816 816 816 816 816 815 815 815 815 814 814 815 815 814 814 814 814 813 813 813 813 813 813 813 813 813 813 813 813 813 814 814 814 814 815 815 816 816
808 809 809 810 811 811 812 813 813 813 814 814 814 815 815 815 816 816 817 817 817 817 817 816 816 816 816 816 816 815 815 815 815 815 815 815 815 814 814 814 814 814 814 814 814 814 813 813 813 812 812 812 812 812 812 812 812 812 812 812 812 812 813 813 813 814 814 815 815
808 808 809 810 810 811 811 812 812 813 813 813 813 814 814 815 815 816 816 816 816 816 816 815 815 815 815 815 815 815 815 815 815 815 815 814 814 814 813 813 813 813 813 813 813 813 812 812 812 812 811 811 811 811 811 811 811 811 811 811 811 811 811 812 812 813 813 813 813
808 808 809 809 810 810 811 811 811 811 812 812 813 813 813 814 814 814 815 815 815 815 814 814 814 814 814 814 814 814 815 814 814 814 814 814 813 813 813 813 813 813 812 812 812 811 811 811 811 811 811 810 810 810 809 809 809 809 809 809 809 809 810 810 811 811 811 812 812
807 807 808 809 809 810 810 810 811 811 811 812 812 812 813 813 813 813 814 814 814 814 813 813 813 813 814 814 814 814 814 814 814 814 814 813 813 813 813 812 812 812 811 811 811 811 811 811 810 810 810 810 809 809 809 808 808 808 808 808 808 808 808 808 809 809 810 811 812
806 807 807 808 808 809 809 810 810 811 811 811 811 811 812 812 812 812 812 812 812 812 812 812 812 813 813 813 814 814 814 814 814 813 813 813 813 812 812 812 811 811 811 811 810 810 810 810 810 809 809 809 809 809 808 808 808 807 807 807 808 808 808 808 808 809 810 811 811
806 806 806 807 808 808 809 809 809 810 810 810 811 811 811 811 811 811 811 811 811 811 811 811 812 812 812 813 813 813 813 813 813 813 813 813 812 812 812 811 811 811 810 810 810 810 809 809 809 809 809 808 808 808 808 808 807 807 807 807 807 808 808 808 809 809 810 811 811
805 806 806 806 807 807 808 808 808 809 809 809 809 810 810 810 810 810 810 810 810 810 811 811 811 811 812 812 812 812 812 812 812 812 812 812 812 812 811 811 811 810 810 810 809 809 809 808 808 808 808 808 808 808 808 808 807 806 806 807 807 808 808 809 809 809 809 810 811
804 805 805 806 806 806 807 807 808 808 808 808 808 808 808 809 809 809 809 809 809 810 810 810 811 811 811 811 811 812 812 811 811 811 811 811 811 811 811 811 810 810 810 809 809 809 808 808 808 808 808 807 807 807 807 807 807 807 806 806 807 807 808 809 809 809 809 810 810
803 804 805 805 806 806 806 806 807 807 807 807 807 807 807 807 808 808 808 808 809 809 809 810 810 811 811 811 811 811 811 811 811 811 811 811 811 811 810 810 810 810 810 809 809 809 808 808 808 807 807 807 807 807 807 807 807 807 806 806 806 807 808 808 809 809 809 810 810
803 803 804 804 805 805 806 806 806 806 806 806 806 806 806 806 807 807 808 808 808 808 809 809 810 810 810 810 810 810 811 811 811 811 810 810 810 810 810 810 810 810 809 809 809 809 808 807 807 807 807 807 807 807 807 807 807 807 806 806 806 806 807 808 809 809 809 810 810
802 802 803 804 804 804 805 805 806 806 806 806 806 806 806 806 806 807 807 807 808 808 808 809 809 809 809 809 810 810 810 810 810 810 810 810 809 809 809 809 809 809 809 809 809 809 808 807 807 807 807 806 806 806 807 807 807 807 806 806 806 807 807 808 808 809 809 810 810
801 802 802 803 803 804 804 804 805 805 805 805 805 805 805 805 806 806 807 807 807 807 808 808 808 809 809 809 809 809 809 809 809 809 809 809 809 809 809 809 809 809 809 809 809 808 808 807 807 806 806 806 806 806 806 807 807 807 806 807 807 807 807 808 808 808 809 810 810
801 801 801 802 802 803 803 803 804 804 804 804 804 804 805 805 805 806 806 806 807 807 807 807 808 808 808 808 808 809 809 809 809 809 809 809 809 808 808 808 808 808 808 809 809 808 808 807 806 806 806 806 806 806 806 806 806 806 807 807 807 807 808 808 808 808 809 810 810
800 800 801 801 801 802 802 802 803 803 803 803 803 804 804 804 805 805 806 806 806 806 807 807 807 807 807 808 808 808 808 808 809 809 808 808 808 807 807 807 807 808 808 808 808 808 807 806 806 806 806 806 806 806 806 806 806 806 806 807 807 807 807 808 808 808 809 810 810
799 800 800 800 801 801 801 802 802 802 802 803 803 803 803 804 804 805 805 806 806 806 807 807 807 807 807 807 807 808 808 808 808 808 807 807 807 807 807 807 807 807 807 808 807 807 807 806 806 806 806 806 806 806 806 806 806 806 806 806 806 807 807 807 808 808 809 810 810
798 799 799 800 800 800 801 801 801 801 802 802 802 802 802 803 804 804 805 805 806 806 806 807 807 807 807 807 807 807 807 807 807 806 806 806 806 806 806 806 806 806 807 807 807 807 807 806 806 806 806 806 806 806 806 806 806 806 806 806 806 807 807 807 808 808 809 809 810
798 798 798 799 799 800 800 800 800 801 801 801 801 802 802 802 803 804 804 804 805 805 805 806 806 806 806 806 806 806 806 806 806 806 806 806 806 806 806 806 806 806 806 806 806 806 806 806 806 806 806 806 806 806 806 806 806 806 806 806 806 807 807 807 808 808 809 809 810
797 797 798 798 798 799 799 799 800 800 800 801 801 801 801 802 802 803 803 803 804 804 804 804 805 805 805 805 805 805 805 805 805 805 805 805 805 805 805 805 805 805 805 805 806 806 806 806 806 806 806 805 805 805 805 805 806 806 806 806 806 807 807 807 808 808 809 809 809
797 797 797 798 798 798 798 798 799 799 800 800 800 801 801 801 802 802 802 803 803 803 803 804 804 804 804 804 804 804 804 804 804 804 804 804 804 804 805 805 804 804 804 805 805 805 805 805 805 805 805 805 805 805 805 805 805 806 806 806 806 806 807 807 808 808 808 809 809
796 796 797 797 797 797 797 798 798 798 799 799 800 800 801 801 801 801 802 802 802 802 803 803 803 803 803 803 803 803 804 803 803 803 803 803 804 804 804 804 804 804 804 804 804 804 804 804 804 804 804 804 804 804 805 805 805 805 805 806 806 806 806 807 807 808 808 809 809
796 796 796 796 796 796 796 797 797 798 798 799 799 800 800 801 801 801 801 801 801 801 802 802 802 802 802 802 803 803 803 803 803 803 803 803 803 803 803 803 803 803 803 803 804 804 804 804 804 804 804 804 804 804 804 804 804 805 805 805 806 806 806 807 807 808 808 808 809
795 795 795 795 796 796 796 796 796 797 797 798 799 799 799 800 800 800 800 800 800 801 801 801 801 801 801 802 802 802 802 802 802 802 802 802 802 802 802 802 802 802 802 803 803 803 803 803 803 803 803 803 803 804 804 804 804 804 805 805 805 806 806 807 807 808 808 808 809
794 794 794 794 795 795 795 795 796 796 797 798 798 798 798 798 799 799 799 799 800 800 800 800 800 801 801 801 801 801 801 801 801 801 801 801 801 801 801 801 801 801 802 802 802 802 802 802 802 803 803 803 803 803 803 804 804 804 804 805 805 806 806 807 807 808 808 808 809
792 793 793 793 794 794 794 794 795 796 796 797 797 797 797 797 798 798 798 799 799 799 799 800 800 800 800 800 800 800 800 800 800 800 801 801 800 800 801 801 801 801 801 801 802 802 802 802 802 802 802 802 802 803 803 803 804 804 804 805 805 806 806 807 807 808 808 809 809
791 792 792 792 793 793 793 793 794 795 796 796 796 796 796 797 797 797 798 798 798 798 799 799 799 799 799 800 800 800 800 800 800 800 800 800 800 800 800 800 800 800 800 801 801 801 802 802 802 802 802 802 802 802 803 803 804 804 804 805 806 806 806 807 807 808 808 809 810
791 791 791 791 792 792 792 793 793 794 795 795 796 796 796 796 797 797 797 798 798 798 798 798 798 799 799 799 799 799 799 799 799 799 799 799 799 799 799 799 799 799 799 800 801 801 801 802 802 802 801 801 802 802 802 803 803 804 804 805 806 806 806 807 807 808 808 809 810
790 790 790 791 791 791 791 792 792 793 794 794 795 795 796 796 796 797 797 797 797 797 798 798 798 798 798 798 799 799 799 799 799 798 798 798 798 798 798 798 798 799 799 799 800 801 801 801 801 801 801 801 802 802 802 803 803 804 804 805 806 806 807 807 808 808 809 809 810
789 789 789 790 790 790 791 791 791 792 793 793 794 795 795 796 796 796 796 797 797 797 797 797 797 797 798 798 798 798 798 798 798 798 798 798 798 798 798 798 798 798 798 799 800 800 801 801 801 801 801 801 801 802 802 803 803 803 804 805 806 806 807 807 808 808 809 809 809
787 788 788 789 789 789 790 790 791 791 792 793 793 794 795 795 795 796 796 796 796 797 797 797 797 797 797 797 797 797 797 797 797 798 798 798 798 798 798 798 798 798 798 799 799 800 800 801 801 801 801 801 801 802 802 802 803 803 804 805 806 806 807 807 808 809 809 809 810
786 787 787 787 788 788 789 789 790 791 791 792 793 793 794 794 795 795 796 796 796 796 796 796 796 796 797 797 797 797 797 797 797 797 797 797 797 798 798 798 798 798 798 799 799 800 800 801 801 801 801 801 801 801 802 802 803 804 804 805 806 806 807 808 808 809 809 809 810
785 786 786 786 787 787 788 789 789 790 791 791 792 792 793 793 794 794 795 796 796 796 796 796 796 796 796 796 796 797 797 797 797 797 797 797 797 797 798 798 798 798 798 799 799 800 800 800 800 800 800 801 801 801 802 802 803 803 804 805 806 806 807 808 808 809 809 809 810
784 784 785 786 786 786 787 788 788 789 790 790 791 791 792 792 793 794 794 795 795 795 795 796 796 796 796 796 796 796 797 797 797 797 797 797 797 797 798 798 798 798 799 799 799 800 800 800 800 800 800 801 801 801 802 802 803 803 804 804 805 806 807 807 808 809 809 809 810
782 783 784 784 785 786 786 786 787 788 789 790 790 791 791 791 792 793 793 794 794 795 795 795 795 795 795 796 796 796 796 796 797 797 797 797 797 797 798 798 798 798 799 799 799 799 799 799 800 800 800 801 801 801 802 802 803 803 804 804 805 806 806 807 808 808 809 809 810
781 782 783 783 784 785 785 786 786 787 788 789 790 790 791 791 791 792 792 793 794 794 794 795 795 795 795 795 795 796 796 796 796 797 797 797 797 797 798 798 798 799 799 799 799 799 799 799 799 800 800 801 801 802 802 802 803 804 804 805 805 806 806 807 807 808 808 809 809
780 781 781 782 783 784 784 785 785 786 787 788 789 789 790 790 791 791 792 792 793 793 794 794 794 794 794 795 795 796 796 796 796 796 797 797 797 797 797 798 798 799 799 799 799 799 799 799 799 800 800 801 801 802 802 803 803 804 804 805 806 806 806 807 807 808 808 809 809
779 780 781 781 782 782 783 784 784 785 786 787 788 788 789 789 790 790 791 791 792 793 793 793 793 794 794 794 795 795 796 796 796 796 796 796 797 797 797 798 798 799 799 799 799 799 799 799 799 800 800 801 801 802 802 803 803 804 804 805 806 806 806 807 807 808 808 809 809
779 779 780 781 781 782 782 783 783 784 785 786 787 787 788 788 789 790 790 791 791 792 792 792 793 793 794 794 795 795 795 796 796 796 796 796 796 797 797 798 798 799 799 799 799 799 799 799 800 800 800 801 801 802 802 803 803 804 804 805 805 806 806 806 807 808 808 809 809
778 779 779 780 781 781 781 782 783 783 784 785 786 786 787 788 788 789 790 790 791 791 791 792 792 793 793 794 794 795 795 795 796 796 796 796 796 796 797 797 798 798 799 799 799 799 799 799 800 800 801 801 801 802 802 803 803 803 804 805 805 805 806 806 807 807 808 808 809
777 778 779 779 780 780 781 781 782 783 784 784 785 786 786 787 788 788 789 790 790 791 791 791 791 792 793 793 794 794 794 795 795 796 796 796 796 796 797 797 797 798 798 798 798 799 799 799 800 800 801 801 801 802 802 803 803 803 804 804 805 805 806 806 806 807 807 808 808